Regional Weather Roundup
Issued by NWS

Home | Current Version | Previous Version | Graphics & Text | Print | Product List | Glossary On
Versions: 1 2 3 4 5 6 7 8 9 10 11 12 13 14 15 16 17 18 19 20 21 22 23 24 25 26 27 28 29 30 31 32 33 34 35 36 37 38 39 40 41 42 43 44 45 46 47 48 49 50
000
ASUS43 KLSX 080510
RWRMO

WEATHER SUMMARY FOR MISSOURI
NATIONAL WEATHER SERVICE SPRINGFIELD MO
1100 PM CST SUN FEB 07 2016

NOTE: "FAIR" INDICATES FEW OR NO CLOUDS BELOW 12,000 FEET WITH NO
       SIGNIFICANT WEATHER AND/OR OBSTRUCTIONS TO VISIBILITY.
       CURRENT SKY AND/OR WEATHER CONDITIONS ARE NOT AVAILABLE FOR
       CHILLICOTHE AND FARMINGTON.

MOZ001>031-035>038-043-044-053-054-080600-
...NORTHERN AND WESTERN MISSOURI...

CITY           SKY/WX    TMP DP  RH WIND       PRES   REMARKS
KANSAS CTY INT CLOUDY    37  26  64 NW26G39   30.00F WCI  25
KANSAS C DTWN  CLOUDY    39  25  57 NW18G37   30.00F WCI  30
LEE`S SUMMIT   CLOUDY    38  24  57 NW25G41   30.01S WCI  27
ST JOSEPH      CLOUDY    36  27  69 NW20      30.00F WCI  25
CHILLICOTHE      N/A     37  29  72 NW8G22    29.94S
KIRKSVILLE     CLOUDY    34  29  82 W17G23    29.85F WCI  23

$$
MOZ066>068-077>081-088>096-101>105-080600-
...SOUTHWEST MISSOURI...

CITY           SKY/WX    TMP DP  RH WIND       PRES   REMARKS
SPRINGFIELD    PTCLDY    40  19  43 NW21G38   30.02R
JOPLIN         CLEAR     38  20  48 W10       30.09S

$$
MOZ032>034-039>042-045>050-055>058-069>072-080600-
...CENTRAL MISSOURI...

CITY           SKY/WX    TMP DP  RH WIND       PRES   REMARKS
COLUMBIA       CLOUDY    39  26  59 W15G22    29.90S
JEFFERSON CITY CLOUDY    40  25  55 NW20G26   29.93S
ROLLA          CLOUDY    41  22  46 W21G30    29.88F
SEDALIA        CLOUDY    38  28  67 W20G28    29.96F WCI  28
WHITEMAN AFB   MOCLDY    37  27  65 W26G35    29.95F WCI  26
WARRENSBURG    CLOUDY    37  27  65 W15G29    29.99S WCI  28
OSAGE BEACH    CLOUDY    39  21  48 W15       29.95R

$$
MOZ051-052-059>065-080600-
...EAST CENTRAL MISSOURI...

CITY           SKY/WX    TMP DP  RH WIND       PRES   REMARKS
ST LOUIS INTL  MOCLDY    39  31  72 W5        29.86F
SPIRIT OF STL  CLOUDY    39  31  72 SW6       29.86F
ST CHARLES     CLOUDY    38  30  73 W7        29.86F

$$
MOZ072>076-082>087-097>100-106>115-080600-
...SOUTH CENTRAL AND SOUTHEAST MISSOURI...

CITY           SKY/WX    TMP DP  RH WIND       PRES   REMARKS
CAPE GIRARDEAU CLOUDY    41  31  67 W8        29.90F
FARMINGTON     CLEAR     41  22  46 W6        29.88F
POPLAR BLUFF   CLEAR     46  23  40 W7        29.91F
WEST PLAINS    CLEAR     41  18  39 W12       29.95F

$$



USA.gov is the U.S. government's official web portal to all federal, state and local government web resources and services.